joomla templates top joomla templates template joomla

King Air Abend

Wetterbeurteilung mit Hilfe Webcam und ATIS

 

Webcam 1Webcam 2

(Zum vergrößern auf das Bild klicken)

Wetteranzeige

Aktuelles Platzwetter Stand 23.10.2019 06:06Z

AvgMin / Max
Windrichtung110 Deg60 / 130 Deg
Windgeschwindigkeit4 kt2 / 7 kt
Sichtweite8000 m
Temperatur11 °C
Taupunkt9 °C
Feuchte87 %
QNH1019.8 hPa
QFE966.2 hPa
WolkenOVC007

Aerodrome Terminal Information Service (ATIS) Coburg

METAR
EDQC 230550Z AUTO 09005KT 7000 OVC009 11/09 Q1019=

Wetterverlauf

Notam

C3571/19 - AD PPR. 22 OCT 00:00 2019 UNTIL 09 DEC 23:59 2019. CREATED: 11 OCT 08:29 2019

C0503/18 - COBURG INFO CHANGED TO 128.680 (8.33 KHZ). 28 FEB 12:22 2018 UNTIL PERM. CREATED:
28 FEB 12:22 2018

Windvorhersage

Verkehrslandeplatz Coburg Brandensteinsebene
Tower
Zur Brandensteinsebene
96450 Coburg

 

Telefon +49 (0) 95 61 / 9 20 98
Telefax +49 (0) 95 61 / 9 20 06
EMail tower@vlp-coburg.de